SL-14 DEB, 45331

Orbit data source: Space-Track

SL-14 DEB, 45331 is space debris in LEO originally from a launch on Thu, 15 Aug 1991 UTC launched from the Plesetsk Missile And Space Complex (PKMTR). Debris objects in space refer to the collection of defunct objects orbiting the Earth. Examples of debris include non-operational satellites, rocket bodies, and fragments generated from explosions, collisions, or faulty payload assembly.

Loading next visibility...
Identifier
45331, 1991-056BV
Orbit
LEO
Country
Flag of CISCIS
Related business
Manufacturer
Unknown
Mission
Spacecraft
Bus & Motor
Unknown
Mass
Unknown
Launch date (UTC)
1991-08-15 (34 years ago)
Launch vehicle
Unknown
Launch site
Plesetsk Missile And Space Complex (PKMTR)
Object type
Payload
Rocket body
Debris
Shape & HBR
Unknown shape, 0.1 m
Radar Cross Section
Small (<0.1 m²)

Expand to show TLE details & history
Last TLE update: 3 days ago

TLE from 3 days ago
0 SL-14 DEB
1 45331U 91056BV  25285.66542479  .00002328  00000-0  79921-2 0  9997
2 45331  82.6749  60.3750 0219408  81.3448 281.2446 12.89770982263479
Epoch: 2025-10-12T15:58Z
TLE epoch observation values (Epoch: 2025-10-12T15:58:12.701Z)
Latitude
-0.00007°
Longitude
159.34277°
Altitude
1,275.919 km
Speed
7.232 km/s
True Right ascension
04h 01m 29s
True Declination
0° 00' 00"
Sunlit
Object was in full shadow at epoch
Visualization orbit readout
Latitude
Unknown
Longitude
Unknown
Altitude
Unknown
Speed
Unknown
Apparent Right ascension
Unknown
Apparent Declination
Unknown
Sunlit
N/A
Visualization observer readout
Local Sidereal Time
23:23:05
Azimuth
Unknown
Elevation
Unknown
Doppler factor
Unknown
Orbital elements
Apogee altitude
1,468.167 km
Perigee altitude
1,131.251 km
Semi-major axis
7,677.846 km
Eccentricity
0.02194
Inclination
82.6749°
RAAN
60.375°
Arg. of periapsis
81.3448°
True anomaly
278.76615°
Mean anomaly
281.2446°
Eccentric anomaly
280.00661°
Mean motion
3.22615 °/min
Orbital period
111.59 mins
BSTAR
0.0079921
Loading maneuver chart data...
Computing Atmospheric mass density...
Loading historical data...
Loading historical data...
Loading historical data...
Loading historical data...
Loading historical data...
Loading historical data...
Loading historical data...

Documentation

Showing up to 5 results
|